Showing default

EXPLORER 36 (GEOS 2), 3093

Orbit data source: Space-Track

EXPLORER 36 (GEOS 2), 3093 is a payload satellite owned by GSFC (US) in LEO that was launched on Thu, 11 Jan 1968 UTC via a THOR DELTA E1 launch vehicle from the Air Force Western Test Range (AFWTR). Payloads include a variety of satellites, spacecraft, and rockets equipped with specific instruments for various scientific and technological missions. These include communications satellites like Starlink; space stations such as the ISS; scientific satellites like the Hubble; Earth observation satellites from companies like Planet Labs, Umbra, and HawkEye 360; GPS; miniature CubeSats for education and research; and military/defense satellites.

Loading next visibility...
EXPLORER 36 (GEOS 2) details
Identifier
3093, 1968-002A
Orbit
LEO
Last TLE update15 hours ago
Origin
Flag of USGSFC (US)
ManufacturerAPL
MissionCivil Geodetic
Bus & MotorANNA, Unknown motor
Mass212 kg wet, 212 kg dry
Launch date (UTC)
1968-01-11 (57 years ago)
Launch vehicle
THOR DELTA E1
Launch site
Air Force Western Test Range (AFWTR)
Object type
Payload
Rocket body
Debris
Shape & HBROct Cyl + 1 Dome + 1 Ant, 8.9 m
Radar Cross Section2.095 m², Large (>1 m²)

Expand to show TLE details & history

TLE from 15 hours ago
0 EXPLORER 36 (GEOS 2)
1 03093U 68002A   24355.86988726 -.00000092  00000-0 -48608-4 0  9997
2 03093 105.8018  18.8034 0319618 267.7699 269.3978 12.83583027667640
Epoch: 2024-12-20T20:52Z
Definitive object data (Epoch: 2024-12-20T20:52:38.259Z)
Latitude6.17664°
Longitude157.46115°
Altitude1,339.395 km
Speed7.184 km/s
True Right ascension13h 22m 11s
True Declination6° 08' 34"
Sunlit
Object was in daylight at TLE epoch
Visualization TLE readout
Latitude-73.55475°
Longitude84.09289°
Altitude1,107.534 km
Speed7.415 km/s
Apparent Right ascension00h 53m 06s
Apparent Declination-72° 03' 22"
Sunlit
Object is in daylight
Visualization observer readout
Local Sidereal Time11:19:39
Azimuth192.563° SSW
Elevation-55.83°
Doppler factor1
Orbital elements
Apogee altitude1,571.079 km
Perigee altitude1,078.675 km
Semi-major axis7,703.014 km
Eccentricity0.0319618
Inclination105.8018°
RAAN18.8034°
Arg. of periapsis267.7699°
True anomaly265.73947°
Mean anomaly269.3978°
Eccentric anomaly267.56817°
Mean motion3.21035 °/min
BSTAR-0.000048608
Orbital period112.14 mins
Loading maneuver chart data...
Loading historical data...
Loading historical data...
Loading historical data...
Loading historical data...
Loading historical data...
Loading historical data...
Loading historical data...

EXPLORER 36 (GEOS 2) Visibility forecast

Observer location: undefined°, undefined

Span
Click to sort rows by Start time (UTC) header in descending order
Start Az.
Max El. time (UTC)
Max El. Az.
Max El.
End time (UTC)
End Az.
12 mins2024-12-21 13:26:52.806Z49.789° ENE2024-12-21 13:32:52.806Z96.064° ESE21.439°2024-12-21 13:38:52.806Z145.759° SSE
15 mins2024-12-21 15:15:52.806Z19.78° NNE2024-12-21 15:22:52.806Z331.638° NNW44.237°2024-12-21 15:30:52.806Z211.391° SW
10 mins2024-12-21 17:06:52.806Z353.031° N2024-12-21 17:11:52.806Z312.874° NW20.399°2024-12-21 17:16:52.806Z273.96° WNW
14 mins2024-12-22 00:08:52.806Z114.404° SE2024-12-22 00:14:52.806Z58.456° ENE32.826°2024-12-22 00:22:52.806Z350.302° N
15 mins2024-12-22 01:57:52.806Z180.788° SSW2024-12-22 02:03:52.806Z241.612° WSW38.833°2024-12-22 02:12:52.806Z329.034° NNW
|